CW2931 Weather Reports


Display with metric or nautical units.
time (UTC)temp
F
wind
direction
speed
MPH
gust
MPH
rain 1hr
in
rain 24hr
in
rain mn
in
humidity
%
barometer
mb
20260831101604 72 229 0.0 0.0 0.00 0.20 0.00 91 1015.0
20260831101104 71 210 0.0 0.0 0.00 0.20 0.00 91 1015.2
20260831100104 71 254 0.0 0.0 0.00 0.20 0.00 91 1015.1
20260831095603 71 258 0.0 0.0 0.00 0.20 0.00 91 1015.1
20260831094604 71 251 0.0 0.0 0.00 0.20 0.00 91 1015.1
20260831094104 71 251 0.0 0.0 0.00 0.20 0.00 91 1015.1
20260831093604 71 261 0.0 0.0 0.00 0.20 0.00 91 1015.1
20260831092604 71 235 0.0 0.0 0.00 0.21 0.00 91 1015.2
20260831092103 71 255 0.0 0.0 0.00 0.21 0.00 91 1015.1
20260831091603 71 256 0.0 0.0 0.00 0.21 0.00 91 1015.2
20260831091104 71 256 0.0 0.0 0.00 0.21 0.00 91 1015.2
20260831090603 71 255 0.0 0.0 0.00 0.21 0.00 91 1015.0
20260831090104 70 256 0.0 0.0 0.00 0.21 0.00 90 1015.0
20260831085604 70 256 0.0 0.0 0.00 0.21 0.00 90 1015.1
20260831085104 70 256 0.0 0.0 0.00 0.21 0.00 90 1015.2
20260831084604 70 256 0.0 0.0 0.00 0.21 0.00 90 1015.0
20260831084104 70 256 0.0 0.0 0.00 0.21 0.00 90 1014.8
20260831083603 70 256 0.0 0.0 0.00 0.21 0.00 90 1014.6
20260831083104 70 256 0.0 0.0 0.00 0.21 0.00 90 1014.7
20260831082604 70 256 0.0 0.0 0.00 0.21 0.00 90 1014.8
20260831082103 70 256 0.0 0.0 0.00 0.21 0.00 90 1014.9
20260831081604 70 256 0.0 0.0 0.00 0.21 0.00 90 1014.9
20260831080603 70 256 0.0 0.0 0.00 0.21 0.00 89 1014.9
20260831080104 71 256 0.0 0.0 0.00 0.21 0.00 89 1015.0
20260831075603 71 256 0.0 0.0 0.00 0.22 0.00 89 1015.0
20260831075103 71 256 0.0 0.0 0.00 0.22 0.00 89 1015.2
20260831074104 71 256 0.0 0.0 0.00 0.22 0.00 89 1015.3
20260831073606 71 256 0.0 0.0 0.00 0.22 0.00 89 1015.3
20260831073105 71 256 0.0 0.0 0.00 0.23 0.00 89 1015.4
20260831072604 71 256 0.0 0.0 0.00 0.23 0.00 88 1015.5
20260831072104 71 256 0.0 0.0 0.00 0.23 0.00 88 1015.5
20260831071603 71 256 0.0 0.0 0.00 0.23 0.00 88 1015.5
20260831071103 71 256 0.0 0.0 0.00 0.23 0.00 88 1015.5
20260831070604 71 256 0.0 0.0 0.00 0.23 0.00 89 1015.6
20260831070104 71 255 0.0 0.0 0.00 0.23 0.00 88 1015.5
20260831065603 71 255 0.0 0.0 0.00 0.23 0.00 88 1015.5
20260831065103 71 255 0.0 0.0 0.00 0.23 0.00 88 1015.5
20260831064604 71 255 0.0 0.0 0.00 0.23 0.00 88 1015.5
20260831063605 71 255 0.0 0.0 0.00 0.23 0.00 88 1015.5
20260831063104 72 255 0.0 0.0 0.00 0.23 0.00 88 1015.5
20260831062604 72 255 0.0 0.0 0.00 0.23 0.00 88 1015.5
20260831062105 72 256 0.0 0.0 0.00 0.23 0.00 88 1015.5
20260831061605 72 255 0.0 0.0 0.00 0.23 0.00 88 1015.5
20260831061105 72 255 0.0 0.0 0.00 0.23 0.00 88 1015.5
20260831060604 72 256 0.0 0.0 0.00 0.23 0.00 88 1015.6
20260831055604 72 255 0.0 0.0 0.00 0.23 0.00 88 1015.8
20260831055104 72 256 0.0 0.0 0.00 0.23 0.00 88 1015.9
20260831054605 72 255 0.0 0.0 0.00 0.23 0.00 88 1015.9
20260831054105 72 256 0.0 0.0 0.00 0.23 0.00 88 1015.9
20260831053605 72 256 0.0 0.0 0.00 0.23 0.00 88 1016.0
20260831053104 72 256 0.0 0.0 0.00 0.24 0.00 88 1016.0
20260831051605 72 256 0.0 0.0 0.00 0.24 0.00 87 1016.0
20260831051105 72 256 0.0 0.0 0.00 0.24 0.00 87 1016.0
20260831050605 72 255 0.0 0.0 0.00 0.24 0.00 87 1016.0
20260831045605 72 239 0.0 0.0 0.00 0.24 0.00 87 1016.0
20260831045105 72 239 0.0 0.0 0.00 0.24 0.00 87 1015.9
20260831044605 72 240 0.0 0.0 0.00 0.24 0.00 87 1016.0
20260831044105 73 245 0.0 0.0 0.00 0.24 0.00 87 1016.0
20260831043605 73 248 0.0 0.0 0.00 0.24 0.00 87 1016.0
20260831043104 73 243 0.0 0.0 0.00 0.24 0.00 87 1016.1
20260831042104 73 249 0.0 0.0 0.00 0.24 0.00 87 1016.2
20260831041604 73 250 0.0 0.0 0.00 0.24 0.00 87 1016.1
20260831041105 73 231 0.0 0.0 0.00 0.24 0.00 87 1016.0
20260831040604 73 249 0.0 0.0 0.00 0.24 0.00 87 1016.0
20260831040105 73 248 0.0 0.0 0.00 0.24 0.00 87 1016.1
20260831035604 73 250 0.0 0.0 0.00 0.24 0.24 87 1016.0
20260831035104 73 236 0.0 0.0 0.00 0.24 0.24 87 1016.1
20260831034604 73 203 0.0 0.0 0.00 0.24 0.24 87 1016.1
20260831034104 73 248 0.0 0.0 0.00 0.24 0.24 87 1016.0
20260831033605 73 247 0.0 0.0 0.00 0.24 0.24 87 1016.0
20260831033105 73 247 0.0 0.0 0.00 0.24 0.24 86 1016.0
20260831032605 73 253 0.0 0.0 0.00 0.24 0.24 86 1016.0
20260831032104 73 197 0.0 0.0 0.00 0.24 0.24 86 1016.0
20260831031604 73 250 0.0 0.0 0.00 0.24 0.24 86 1016.0
20260831031105 73 240 0.0 0.0 0.00 0.24 0.24 86 1015.9
20260831030604 73 216 0.0 0.0 0.00 0.24 0.24 86 1016.0
20260831030105 73 241 0.0 0.0 0.00 0.24 0.24 86 1016.0
20260831025604 72 201 0.0 0.0 0.00 0.24 0.24 86 1016.0
20260831024604 72 227 0.0 0.0 0.00 0.24 0.24 85 1015.9
20260831024104 72 197 0.0 0.0 0.00 0.24 0.24 85 1015.8
20260831023604 72 179 0.0 0.0 0.00 0.24 0.24 85 1015.7
20260831023104 72 186 0.0 0.0 0.00 0.24 0.24 85 1015.8
20260831022604 72 183 0.0 0.0 0.00 0.24 0.24 85 1015.8
20260831022105 72 182 0.0 0.0 0.00 0.24 0.24 84 1015.8
20260831021604 72 180 0.0 0.0 0.00 0.24 0.24 84 1015.8
20260831021105 72 180 0.0 0.0 0.00 0.24 0.24 84 1015.9
20260831020605 72 198 0.0 0.0 0.00 0.24 0.24 84 1015.9
20260831015604 72 194 0.0 0.0 0.00 0.24 0.24 84 1015.9
20260831015105 72 194 0.0 0.0 0.00 0.24 0.24 84 1015.9
20260831014605 72 203 0.0 0.0 0.00 0.24 0.24 84 1015.9
20260831014104 72 204 0.0 0.0 0.00 0.24 0.24 84 1015.9
20260831013104 72 202 0.0 0.0 0.00 0.24 0.24 85 1015.6
20260831012605 72 201 0.0 0.0 0.00 0.24 0.24 85 1015.6
20260831012104 72 200 0.0 0.0 0.00 0.24 0.24 85 1015.6
20260831011604 72 179 0.0 0.0 0.00 0.24 0.24 85 1015.5
20260831011105 72 172 0.0 0.0 0.00 0.24 0.24 86 1015.5
20260831010604 72 189 0.0 0.0 0.00 0.24 0.24 86 1015.5
20260831010104 72 179 0.0 0.0 0.00 0.24 0.24 86 1015.4
20260831005104 72 168 0.0 0.0 0.00 0.24 0.24 87 1015.3
20260831004604 72 202 0.0 0.0 0.00 0.24 0.24 87 1015.2
20260831004104 72 158 0.0 0.0 0.00 0.24 0.24 87 1015.2
20260831003604 72 202 0.0 0.0 0.00 0.24 0.24 87 1015.4
20260831003104 72 192 0.0 0.0 0.00 0.24 0.24 87 1015.4
20260831002604 72 176 0.0 0.0 0.00 0.24 0.24 88 1015.4
20260831002104 72 166 0.0 0.0 0.00 0.24 0.24 88 1015.4
20260831001604 73 175 0.0 0.0 0.00 0.24 0.24 88 1015.4
20260831000105 73 163 0.0 0.0 0.00 0.24 0.24 88 1015.7
20260830235604 73 190 0.0 0.0 0.00 0.24 0.24 88 1015.7
20260830235104 73 142 0.0 0.0 0.00 0.24 0.24 88 1015.8
20260830234604 73 173 0.0 0.0 0.01 0.24 0.24 87 1015.9
20260830233604 74 168 0.0 0.0 0.01 0.24 0.24 87 1015.9
20260830233105 74 151 0.0 0.0 0.01 0.24 0.24 86 1015.9
20260830232604 74 159 0.0 0.0 0.02 0.24 0.24 86 1016.0
20260830232104 74 150 0.0 0.0 0.02 0.24 0.24 86 1016.1
20260830231604 74 155 0.0 0.0 0.02 0.24 0.24 85 1016.2
20260830230604 74 186 0.0 0.0 0.02 0.24 0.24 84 1016.5
20260830230104 74 182 0.0 0.0 0.02 0.24 0.24 84 1016.4
20260830225105 75 182 0.0 0.0 0.02 0.24 0.24 83 1016.4
20260830224605 75 229 0.0 0.0 0.01 0.23 0.23 83 1016.4
20260830224105 75 229 0.0 0.0 0.01 0.23 0.23 82 1016.4
20260830223604 75 234 0.0 0.0 0.01 0.23 0.23 82 1016.5
20260830223104 75 234 0.0 0.0 0.01 0.23 0.23 81 1016.5
20260830222604 75 234 0.0 0.0 0.00 0.22 0.22 81 1016.5
20260830222104 75 234 0.0 0.0 0.00 0.22 0.22 81 1016.5
20260830221604 75 234 0.0 0.0 0.00 0.22 0.22 80 1016.5
20260830221104 75 234 0.0 0.0 0.00 0.22 0.22 80 1016.5
20260830220605 75 234 0.0 0.0 0.00 0.22 0.22 80 1016.5
20260830220104 75 234 0.0 0.0 0.00 0.22 0.22 79 1016.5
20260830215604 75 235 0.0 0.0 0.00 0.22 0.22 79 1016.6
20260830215105 75 188 0.0 0.0 0.00 0.22 0.22 79 1016.5
20260830214606 75 211 0.0 0.0 0.00 0.22 0.22 79 1016.5
20260830214104 75 193 0.0 0.0 0.00 0.22 0.22 79 1016.5
20260830213604 75 240 0.0 0.0 0.00 0.22 0.22 79 1016.2
20260830213104 75 248 0.0 0.0 0.00 0.22 0.22 79 1016.0
20260830212604 75 211 0.0 0.0 0.00 0.22 0.22 79 1016.0
20260830212104 76 160 0.0 0.0 0.00 0.22 0.22 79 1015.9
20260830211605 76 146 0.0 0.0 0.00 0.22 0.22 80 1015.9
20260830211105 76 176 0.0 0.0 0.00 0.22 0.22 80 1015.8
20260830210605 76 192 0.0 0.0 0.00 0.22 0.22 80 1015.9
20260830210105 75 198 0.0 0.0 0.00 0.22 0.22 80 1015.7
20260830205604 75 246 0.0 0.0 0.00 0.22 0.22 81 1015.7
20260830205104 75 132 0.0 0.0 0.00 0.22 0.22 81 1015.7
20260830204604 75 198 0.0 0.0 0.00 0.22 0.22 82 1015.7
20260830204104 75 144 0.0 0.0 0.00 0.22 0.22 83 1015.6
20260830203604 75 232 0.0 0.0 0.00 0.22 0.22 83 1015.6
20260830202605 75 188 0.0 0.0 0.00 0.22 0.22 84 1015.6
20260830202105 75 242 0.0 0.0 0.00 0.22 0.22 84 1015.6
20260830201604 75 210 0.0 0.0 0.00 0.22 0.22 84 1015.6
20260830201104 75 187 0.0 0.0 0.00 0.22 0.22 84 1015.7
20260830200604 75 172 0.0 0.0 0.00 0.22 0.22 84 1015.8
20260830195605 74 78 0.0 0.0 0.00 0.22 0.22 84 1015.8
20260830194604 75 124 0.0 0.0 0.00 0.22 0.22 84 1015.9
20260830193104 75 147 0.0 0.0 0.00 0.22 0.22 84 1015.9
20260830192604 75 234 0.0 0.0 0.00 0.22 0.22 83 1015.8
20260830191604 75 180 0.0 0.0 0.00 0.22 0.22 82 1015.9
20260830191104 75 186 0.0 0.0 0.00 0.22 0.22 83 1016.0
20260830190105 75 207 0.0 0.0 0.00 0.22 0.22 84 1015.9
20260830184604 74 229 0.0 0.0 0.00 0.22 0.22 85 1015.9
20260830184104 74 177 0.0 0.0 0.00 0.22 0.22 86 1016.0
20260830183604 74 171 0.0 0.0 0.00 0.22 0.22 87 1016.0
20260830183106 73 199 0.0 0.0 0.00 0.22 0.22 87 1016.0
20260830182604 73 208 0.0 0.0 0.00 0.22 0.22 87 1015.9
20260830182104 73 164 0.0 0.0 0.00 0.22 0.22 88 1016.1
20260830181604 73 204 0.0 0.0 0.00 0.22 0.22 89 1016.4
20260830181104 72 197 0.0 0.0 0.00 0.22 0.22 89 1016.5
20260830180604 72 194 0.0 0.0 0.00 0.22 0.22 90 1016.7
20260830175604 72 228 0.0 0.0 0.00 0.22 0.22 91 1016.9
20260830175104 72 187 0.0 0.0 0.00 0.22 0.22 91 1016.9
20260830174605 72 178 0.0 0.0 0.00 0.22 0.22 91 1016.9
20260830174104 71 161 0.0 0.0 0.00 0.22 0.22 91 1016.9
20260830173604 71 202 0.0 0.0 0.00 0.22 0.22 92 1016.9
20260830173105 71 177 0.0 0.0 0.00 0.22 0.22 92 1016.9
20260830172605 71 180 0.0 0.0 0.00 0.22 0.22 92 1017.0
20260830172104 71 231 0.0 0.0 0.00 0.22 0.22 92 1017.4
20260830171604 71 192 0.0 0.0 0.00 0.22 0.22 93 1017.5
20260830171104 71 226 0.0 0.0 0.01 0.22 0.22 93 1017.5
20260830170604 71 183 0.0 0.0 0.01 0.22 0.22 93 1017.5
20260830170103 71 185 0.0 0.0 0.01 0.22 0.22 93 1017.5
20260830165604 71 211 0.0 0.0 0.01 0.22 0.22 93 1017.7
20260830165105 71 211 0.0 0.0 0.01 0.22 0.22 93 1017.9
20260830164604 71 227 0.0 0.0 0.01 0.22 0.22 93 1017.9
20260830164104 71 173 0.0 0.0 0.01 0.22 0.22 93 1018.0
20260830163604 71 180 0.0 0.0 0.01 0.22 0.22 93 1018.0
20260830163106 70 194 0.0 0.0 0.01 0.22 0.22 93 1018.1
20260830162604 70 235 0.0 0.0 0.02 0.22 0.22 93 1018.3
20260830162104 70 177 0.0 0.0 0.02 0.22 0.22 93 1018.3
20260830161604 70 204 0.0 0.0 0.02 0.22 0.22 93 1018.3
20260830160604 70 207 0.0 0.0 0.02 0.21 0.21 93 1018.5
20260830155604 70 176 0.0 0.0 0.02 0.21 0.21 93 1018.6
20260830155104 69 176 0.0 0.0 0.02 0.21 0.21 93 1018.7
20260830154604 69 239 0.0 0.0 0.02 0.21 0.21 93 1018.7
20260830154104 69 239 0.0 0.0 0.03 0.21 0.21 93 1018.6
20260830153604 69 239 0.0 0.0 0.04 0.21 0.21 93 1018.6
20260830153104 69 235 0.0 0.0 0.04 0.21 0.21 93 1018.6
20260830152604 69 207 0.0 0.0 0.04 0.20 0.20 93 1018.7
20260830152104 69 206 0.0 0.0 0.05 0.20 0.20 93 1018.9
20260830151604 69 250 0.0 0.0 0.06 0.20 0.20 93 1019.0
20260830151104 69 258 0.0 0.0 0.06 0.20 0.20 92 1018.9
20260830150104 69 232 0.0 0.0 0.07 0.19 0.19 92 1019.0
20260830145603 69 240 0.0 0.0 0.08 0.19 0.19 92 1019.0
20260830145105 69 247 0.0 0.0 0.09 0.19 0.19 92 1019.0
20260830144604 69 222 0.0 0.0 0.09 0.19 0.19 92 1018.9
20260830143604 69 245 0.0 0.0 0.09 0.17 0.17 92 1019.0
20260830143104 69 244 0.0 0.0 0.09 0.17 0.17 92 1019.0
20260830142604 69 252 0.0 0.0 0.09 0.16 0.16 92 1018.7
20260830142103 69 252 0.0 0.0 0.08 0.15 0.15 92 1018.6
20260830141604 70 249 0.0 0.0 0.08 0.14 0.14 92 1018.6
20260830141104 70 271 0.0 0.0 0.08 0.14 0.14 91 1018.6
20260830140604 70 250 0.0 0.0 0.08 0.13 0.13 92 1018.7
20260830140104 70 251 0.0 0.0 0.07 0.12 0.12 92 1018.8
20260830135604 70 252 0.0 0.0 0.07 0.11 0.11 92 1018.8
20260830135104 70 245 0.0 0.0 0.06 0.10 0.10 91 1018.9
20260830134604 70 242 0.0 0.0 0.06 0.10 0.10 91 1018.9
20260830134104 70 242 0.0 0.0 0.05 0.09 0.09 91 1018.9
20260830133606 70 243 0.0 0.0 0.04 0.08 0.08 91 1018.7
20260830132605 70 244 0.0 0.0 0.03 0.07 0.07 91 1018.6
20260830132104 70 244 0.0 0.0 0.03 0.07 0.07 91 1018.6
20260830131604 70 244 0.0 0.0 0.02 0.06 0.06 91 1018.6
20260830131104 70 238 0.0 0.0 0.02 0.06 0.06 91 1018.6
20260830130604 70 238 0.0 0.0 0.01 0.05 0.05 91 1018.7
20260830130105 70 238 0.0 0.0 0.01 0.05 0.05 91 1018.7
20260830125104 70 238 0.0 0.0 0.00 0.04 0.04 91 1018.5
20260830124604 70 238 0.0 0.0 0.00 0.04 0.04 91 1018.4
20260830124104 70 238 0.0 0.0 0.00 0.04 0.04 91 1018.2
20260830123604 70 238 0.0 0.0 0.00 0.04 0.04 91 1018.0
20260830123103 70 238 0.0 0.0 0.00 0.04 0.04 91 1018.0
20260830121603 70 238 0.0 0.0 0.00 0.04 0.04 91 1017.5
20260830121103 70 238 0.0 0.0 0.00 0.04 0.04 91 1017.5
20260830120603 70 238 0.0 0.0 0.00 0.04 0.04 91 1017.3
20260830120104 70 238 0.0 0.0 0.00 0.04 0.04 91 1017.0
20260830115604 71 238 0.0 0.0 0.00 0.04 0.04 91 1017.0
20260830114603 71 239 0.0 0.0 0.00 0.04 0.04 91 1017.0
20260830114104 71 188 0.0 0.0 0.00 0.04 0.04 90 1016.9
20260830113604 71 182 0.0 0.0 0.00 0.04 0.04 90 1016.8
20260830112604 71 196 0.0 0.0 0.00 0.04 0.04 91 1016.8
20260830112104 71 196 0.0 0.0 0.00 0.04 0.04 90 1016.7
20260830111104 72 196 0.0 0.0 0.00 0.04 0.04 90 1016.6
20260830110603 72 193 0.0 0.0 0.00 0.04 0.04 90 1016.7
20260830110104 72 171 0.0 0.0 0.00 0.04 0.04 90 1016.8
20260830105604 72 171 0.0 0.0 0.00 0.04 0.04 90 1016.8
20260830105104 72 171 0.0 0.0 0.00 0.04 0.04 90 1016.8
20260830104604 72 171 0.0 0.0 0.00 0.04 0.04 90 1016.9
20260830103604 72 171 0.0 0.0 0.00 0.04 0.04 90 1016.7
20260830103104 72 171 0.0 0.0 0.00 0.04 0.04 90 1016.8
20260830102604 72 171 0.0 0.0 0.01 0.04 0.04 90 1016.9
20260830102103 72 171 0.0 0.0 0.01 0.04 0.04 90 1016.9